TimePST,TemperatureF,Dew PointF,Humidity,Sea Level PressureIn,VisibilityMPH,Wind Direction,Wind SpeedMPH,Gust SpeedMPH,PrecipitationIn,Events,Conditions,WindDirDegrees,DateUTC
12:53 AM,35.1,19.9,54,30.37,10.0,East,24.2,35.7,N/A,,Clear,80,2013-01-02 08:53:00
1:53 AM,34.0,21.0,59,30.36,10.0,East,19.6,33.4,N/A,,Clear,80,2013-01-02 09:53:00
2:53 AM,34.0,21.0,59,30.34,10.0,East,25.3,36.8,N/A,,Clear,80,2013-01-02 10:53:00
3:53 AM,35.1,21.0,57,30.33,10.0,East,24.2,35.7,N/A,,Clear,80,2013-01-02 11:53:00
4:53 AM,35.1,21.0,57,30.31,10.0,East,19.6,36.8,N/A,,Clear,80,2013-01-02 12:53:00
5:53 AM,35.1,21.0,57,30.32,10.0,East,20.7,42.6,N/A,,Clear,80,2013-01-02 13:53:00
7:53 AM,35.1,21.0,57,30.33,10.0,East,23.0,42.6,N/A,,Clear,80,2013-01-02 15:53:00
8:53 AM,36.0,21.9,57,30.33,10.0,East,18.4,33.4,N/A,,Clear,80,2013-01-02 16:53:00
9:53 AM,37.0,21.9,54,30.34,10.0,East,20.7,31.1,N/A,,Clear,80,2013-01-02 17:53:00
10:53 AM,39.0,21.9,50,30.34,10.0,East,19.6,34.5,N/A,,Clear,80,2013-01-02 18:53:00
11:53 AM,39.0,21.9,50,30.32,10.0,East,20.7,36.8,N/A,,Clear,80,2013-01-02 19:53:00
12:53 PM,39.0,23.0,53,30.30,10.0,East,20.7,31.1,N/A,,Clear,80,2013-01-02 20:53:00
1:53 PM,39.0,21.9,50,30.30,10.0,East,24.2,33.4,N/A,,Clear,80,2013-01-02 21:53:00
2:53 PM,37.9,21.9,53,30.30,10.0,East,19.6,33.4,N/A,,Clear,80,2013-01-02 22:53:00
3:53 PM,37.0,21.0,52,30.30,10.0,East,24.2,38.0,N/A,,Clear,80,2013-01-02 23:53:00
4:53 PM,35.1,21.0,57,30.29,10.0,East,25.3,40.3,N/A,,Clear,80,2013-01-03 00:53:00
5:53 PM,35.1,21.0,57,30.29,10.0,East,23.0,33.4,N/A,,Clear,80,2013-01-03 01:53:00
6:53 PM,35.1,21.0,57,30.27,10.0,East,20.7,33.4,N/A,,Clear,80,2013-01-03 02:53:00
7:53 PM,35.1,21.0,57,30.26,10.0,East,25.3,38.0,N/A,,Clear,80,2013-01-03 03:53:00
8:53 PM,34.0,21.0,59,30.25,10.0,East,25.3,38.0,N/A,,Clear,80,2013-01-03 04:53:00
9:53 PM,35.1,21.0,57,30.25,10.0,East,27.6,38.0,N/A,,Clear,80,2013-01-03 05:53:00
10:53 PM,34.0,21.0,59,30.25,10.0,East,18.4,27.6,N/A,,Clear,80,2013-01-03 06:53:00